Weather History for KCEY - November, 2012

Change the Weather History Date:

Monday, November 12, 2012

  Actual Average (KPAH) Record (KPAH)
Temperature  
Mean Temperature 46 °F 50 °F  
Max Temperature 59 °F 60 °F 78 °F (1985)
Min Temperature 32 °F 39 °F 21 °F (1976)
Degree Days  
Heating Degree Days 20 15  
Month to date heating degree days 161  
Since 1 July heating degree days 428  
Cooling Degree Days 0 0  
Month to date cooling degree days 0  
Year to date cooling degree days 1538  
Moisture  
Dew Point 33 °F    
Average Humidity 72    
Maximum Humidity 100    
Minimum Humidity 39    
Precipitation  
Precipitation 0.77 in 0.13 in 1.00 in (2008)
Month to date precipitation 1.53  
Year to date precipitation 41.72  
Snow  
Snow 0.00 in 0.00 in T in (2013)
Month to date snowfall 0.0  
Since 1 July snowfall 0.1  
Since 1 September snowfall 0.1  
Snow Depth -    
Sea Level Pressure  
Sea Level Pressure 30.31 in    
Wind  
Wind Speed 11 mph (WNW)    
Max Wind Speed 22 mph    
Max Gust Speed 30 mph    
Visibility 9 miles    
Events      
T = Trace of Precipitation, MM = Missing Value Source: NWS Daily Summary

Daily Weather History Graph

Daily Weather History Graph

Search for Another Location

Airport or City:

Trip Planner

Search our weather history database for the weather conditions in past years. The results will help you decide how hot, cold, wet, or windy it might be!

Date:

Astronomy

Nov. 12, 2012 Rise Set
Actual Time 6:28 AM CST 4:46 PM CST
Civil Twilight 6:01 AM CST 5:13 PM CST
Nautical Twilight 5:30 AM CST 5:44 PM CST
Astronomical Twilight 4:59 AM CST 6:15 PM CST
Moon 4:55 AM CST (11/12) 3:50 PM CST (11/12)
Length of Visible Light 11h 12m
Length of Day
10h 17m
Waning Crescent, 2% of the Moon is Illuminated
Nov 12
Waning Crescent
Nov 13
New
Nov 20
First Quarter
Nov 28
Full
Dec 6
Last Quarter

Hourly Weather History & Observations

Time (CST) Temp. Windchill Dew Point Humidity Pressure Visibility Wind Dir Wind Speed Gust Speed Precip Events Conditions
12:15 AM 59.0 °F - 55.4 °F 88% 29.98 in 10.0 mi South 21.9 mph 29.9 mph N/A   Overcast
12:35 AM 59.0 °F - 55.4 °F 88% 30.03 in 5.0 mi WSW 18.4 mph 24.2 mph 0.01 in   Overcast
12:55 AM 53.6 °F - 51.8 °F 94% 30.05 in 3.0 mi West 10.4 mph 19.6 mph 0.12 in   Overcast
1:15 AM 53.6 °F - 50.0 °F 88% 30.06 in 3.0 mi WNW 11.5 mph - 0.02 in   Overcast
1:55 AM 51.8 °F - 50.0 °F 94% 30.07 in 7.0 mi WNW 10.4 mph 17.3 mph 0.22 in   Mostly Cloudy
2:15 AM 51.8 °F - 50.0 °F 94% 30.09 in 4.0 mi WNW 5.8 mph - 0.04 in   Overcast
2:35 AM 51.8 °F - 50.0 °F 94% 30.09 in 7.0 mi West 5.8 mph - 0.06 in   Overcast
2:55 AM 51.8 °F - 50.0 °F 94% 30.09 in 5.0 mi West 6.9 mph - 0.09 in   Overcast
3:15 AM 50.0 °F - 50.0 °F 100% 30.09 in 3.0 mi WNW 4.6 mph - 0.04 in   Overcast
3:35 AM 50.0 °F - 50.0 °F 100% 30.11 in 8.0 mi WNW 8.1 mph - 0.05 in   Overcast
3:55 AM 50.0 °F - 50.0 °F 100% 30.12 in 5.0 mi NW 6.9 mph - 0.10 in   Overcast
4:15 AM 50.0 °F - 48.2 °F 94% 30.08 in 4.0 mi North 5.8 mph - 0.06 in   Overcast
4:35 AM 50.0 °F - 48.2 °F 94% 30.12 in 10.0 mi NW 4.6 mph - 0.08 in   Overcast
4:55 AM 50.0 °F - 50.0 °F 100% 30.13 in 9.0 mi NW 4.6 mph - 0.10 in   Overcast
5:15 AM 50.0 °F - 50.0 °F 100% 30.15 in 7.0 mi NW 9.2 mph - 0.02 in   Overcast
5:35 AM 44.6 °F 38.1 °F 44.6 °F 100% 30.16 in 5.0 mi NW 13.8 mph 25.3 mph 0.06 in   Overcast
5:55 AM 44.6 °F 38.4 °F 42.8 °F 93% 30.17 in 6.0 mi NW 12.7 mph - 0.08 in   Overcast
6:15 AM 42.8 °F 35.4 °F 41.0 °F 93% 30.19 in 5.0 mi NW 15.0 mph - 0.02 in   Overcast
6:35 AM 42.8 °F 36.6 °F 41.0 °F 93% 30.22 in 8.0 mi NW 11.5 mph 17.3 mph 0.03 in   Overcast
6:55 AM 41.0 °F 32.2 °F 39.2 °F 93% 30.23 in 7.0 mi NW 18.4 mph 25.3 mph 0.05 in   Overcast
7:15 AM 39.2 °F 30.8 °F 39.2 °F 100% 30.24 in 5.0 mi NW 15.0 mph 27.6 mph N/A   Overcast
7:35 AM 39.2 °F 31.2 °F 37.4 °F 93% 30.26 in 7.0 mi NW 13.8 mph 25.3 mph 0.01 in   Overcast
7:55 AM 37.4 °F 28.2 °F 35.6 °F 93% 30.28 in 9.0 mi NW 16.1 mph 21.9 mph 0.01 in   Overcast
8:15 AM 37.4 °F 28.5 °F 35.6 °F 93% 30.29 in 5.0 mi NNW 15.0 mph 27.6 mph N/A   Overcast
8:35 AM 37.4 °F 28.9 °F 35.6 °F 93% 30.30 in 8.0 mi NNW 13.8 mph 21.9 mph N/A   Overcast
8:55 AM 37.4 °F 29.3 °F 35.6 °F 93% 30.31 in 10.0 mi NW 12.7 mph 20.7 mph N/A   Mostly Cloudy
9:15 AM 37.4 °F 28.2 °F 32.0 °F 81% 30.33 in 10.0 mi NW 16.1 mph 27.6 mph N/A   Mostly Cloudy
9:35 AM 39.2 °F 31.2 °F 32.0 °F 75% 30.33 in 10.0 mi NW 13.8 mph 18.4 mph N/A   Mostly Cloudy
9:55 AM 39.2 °F 31.2 °F 32.0 °F 75% 30.34 in 10.0 mi NNW 13.8 mph - N/A   Mostly Cloudy
10:15 AM 41.0 °F 32.8 °F 33.8 °F 76% 30.35 in 10.0 mi NW 16.1 mph - N/A   Mostly Cloudy
10:35 AM 41.0 °F 33.9 °F 28.4 °F 61% 30.36 in 10.0 mi NNW 12.7 mph 19.6 mph N/A   Partly Cloudy
10:55 AM 41.0 °F 32.8 °F 28.4 °F 61% 30.36 in 10.0 mi NW 16.1 mph 25.3 mph N/A   Clear
11:15 AM 41.0 °F 33.5 °F 26.6 °F 57% 30.37 in 10.0 mi NNW 13.8 mph 24.2 mph N/A   Clear
11:35 AM 41.0 °F 33.1 °F 26.6 °F 57% 30.37 in 10.0 mi NNW 15.0 mph 21.9 mph N/A   Clear
11:55 AM 41.0 °F 34.3 °F 26.6 °F 57% 30.37 in 10.0 mi NW 11.5 mph 18.4 mph N/A   Clear
12:15 PM 42.8 °F 35.8 °F 26.6 °F 53% 30.37 in 10.0 mi NW 13.8 mph - N/A   Clear
12:35 PM 44.6 °F 37.4 °F 26.6 °F 49% 30.37 in 10.0 mi NW 16.1 mph - N/A   Clear
12:55 PM 44.6 °F 37.4 °F 24.8 °F 46% 30.38 in 10.0 mi NW 16.1 mph 20.7 mph N/A   Clear
1:15 PM 44.6 °F 38.4 °F 23.0 °F 43% 30.37 in 10.0 mi NW 12.7 mph - N/A   Clear
1:35 PM 44.6 °F 40.2 °F 23.0 °F 43% 30.36 in 10.0 mi NNW 8.1 mph - N/A   Clear
1:55 PM 44.6 °F 39.7 °F 23.0 °F 43% 30.36 in 10.0 mi NW 9.2 mph - N/A   Clear
2:15 PM 46.4 °F 40.7 °F 23.0 °F 40% 30.36 in 10.0 mi NW 12.7 mph 16.1 mph N/A   Clear
2:35 PM 44.6 °F 38.8 °F 21.2 °F 39% 30.36 in 10.0 mi WNW 11.5 mph - N/A   Clear
2:55 PM 46.4 °F 41.1 °F 23.0 °F 40% 30.36 in 10.0 mi NW 11.5 mph - N/A   Clear
3:15 PM 46.4 °F 41.9 °F 23.0 °F 40% 30.37 in 10.0 mi NW 9.2 mph - N/A   Clear
3:35 PM 44.6 °F 39.7 °F 23.0 °F 43% 30.37 in 10.0 mi NW 9.2 mph - N/A   Clear
3:55 PM 44.6 °F 40.2 °F 21.2 °F 39% 30.38 in 10.0 mi WNW 8.1 mph - N/A   Clear
4:35 PM 42.8 °F 39.3 °F 23.0 °F 46% 30.39 in 10.0 mi NW 5.8 mph - N/A   Clear
4:55 PM 41.0 °F 38.0 °F 23.0 °F 49% 30.40 in 10.0 mi NW 4.6 mph - N/A   Clear
5:15 PM 39.2 °F - 24.8 °F 56% 30.41 in 10.0 mi Calm Calm - N/A   Clear
5:35 PM 39.2 °F 37.0 °F 23.0 °F 52% 30.41 in 10.0 mi WSW 3.5 mph - N/A   Clear
5:55 PM 39.2 °F 37.0 °F 24.8 °F 56% 30.42 in 10.0 mi West 3.5 mph - N/A   Clear
6:15 PM 37.4 °F 32.8 °F 23.0 °F 56% 30.42 in 10.0 mi WSW 5.8 mph - N/A   Clear
6:35 PM 39.2 °F 35.0 °F 24.8 °F 56% 30.43 in 10.0 mi West 5.8 mph - N/A   Clear
6:55 PM 37.4 °F 32.8 °F 24.8 °F 60% 30.43 in 10.0 mi WSW 5.8 mph - N/A   Clear
7:15 PM 37.4 °F 32.8 °F 24.8 °F 60% 30.43 in 10.0 mi WSW 5.8 mph - N/A   Clear
7:35 PM 37.4 °F 32.8 °F 24.8 °F 60% 30.43 in 10.0 mi WSW 5.8 mph - N/A   Clear
7:55 PM 37.4 °F 33.8 °F 24.8 °F 60% 30.43 in 10.0 mi WSW 4.6 mph - N/A   Clear
8:15 PM 37.4 °F 33.8 °F 24.8 °F 60% 30.44 in 10.0 mi WSW 4.6 mph - N/A   Clear
8:35 PM 32.0 °F 27.5 °F 26.6 °F 80% 30.44 in 10.0 mi SW 4.6 mph - N/A   Clear
8:55 PM 35.6 °F 30.7 °F 24.8 °F 65% 30.45 in 10.0 mi WSW 5.8 mph - N/A   Clear
9:15 PM 35.6 °F 30.7 °F 24.8 °F 65% 30.45 in 10.0 mi WSW 5.8 mph - N/A   Clear
9:35 PM 35.6 °F 30.7 °F 24.8 °F 65% 30.46 in 10.0 mi West 5.8 mph - N/A   Clear
9:55 PM 35.6 °F 31.7 °F 24.8 °F 65% 30.46 in 10.0 mi West 4.6 mph - N/A   Clear
10:15 PM 32.0 °F - 26.6 °F 80% 30.46 in 10.0 mi Calm Calm - N/A   Clear
10:35 PM 32.0 °F 28.7 °F 26.6 °F 80% 30.46 in 10.0 mi SSW 3.5 mph - N/A   Clear
10:55 PM 32.0 °F 28.7 °F 26.6 °F 80% 30.46 in 10.0 mi SW 3.5 mph - N/A   Clear
11:15 PM 32.0 °F - 26.6 °F 80% 30.46 in 10.0 mi Calm Calm - N/A   Clear
11:35 PM 32.0 °F 28.7 °F 26.6 °F 80% 30.46 in 10.0 mi West 3.5 mph - N/A   Clear
11:55 PM 32.0 °F 27.5 °F 26.6 °F 80% 30.46 in 10.0 mi WSW 4.6 mph - N/A   Clear